Location: Spring Creek
(38.2870°N, 100.2160°W)
Time: 23:39:07
(UTC+00:00)

DELTA 2 R/B (1) - Pass Details

Date: 01 October 2021
Orbit: 790 x 803 km, 39.6° (Epoch: 22 October)

Event Time Altitude Azimuth Distance (km) Brightness Sun altitude
Exits shadow 11:20:44 - 205° (SSW) 2,819 6.1 -15.7°
Reaches altitude 10° 11:22:18 10° 196° (SSW) 2,339 5.8 -15.4°
Maximum altitude 11:26:36 23° 145° (SE) 1,605 5.5 -14.6°
Drops below altitude 10° 11:30:54 10° 93° (E) 2,350 7.4 -13.8°
Sets 11:33:49 0° 80° (E) 3,283 8.8 -13.2°
